This is the latest recevied weather packets stored in our database for station/object DL4JCP-6. If no packets are shown the sender has not sent any weather packets the latest 10 day(s).
| Time | Temp. | Humidity | Pressure | Rain* | Wind** | Luminosity | Snow |
|---|---|---|---|---|---|---|---|
| 1777544046 | 10.56° C | 37% | 1032 hPa | 0 mm | - | - | - |
| 1777543746 | 10.56° C | 36% | 1032 hPa | 0 mm | - | - | - |
| 1777543446 | 10° C | 35% | 1031.8 hPa | 0 mm | - | - | - |
| 1777543399 | 10° C | 35% | 1031.8 hPa | 0 mm | - | - | - |
| 1777543145 | 10° C | 40% | 1032 hPa | 0 mm | - | - | - |
| 1777542846 | 9.44° C | 35% | 1031.8 hPa | 0 mm | - | - | - |
| 1777542545 | 9.44° C | 39% | 1031.9 hPa | 0 mm | - | - | - |
| 1777542499 | 9.44° C | 39% | 1031.9 hPa | 0 mm | - | - | - |
| 1777542246 | 9.44° C | 39% | 1032.1 hPa | 0 mm | - | - | - |
| 1777541946 | 9.44° C | 42% | 1032.1 hPa | 0 mm | - | - | - |
| 1777541644 | 9.44° C | 39% | 1032.1 hPa | 0 mm | - | - | - |
| 1777541599 | 9.44° C | 39% | 1032.1 hPa | 0 mm | - | - | - |
| 1777541345 | 9.44° C | 38% | 1032.2 hPa | 0 mm | - | - | - |
| 1777541044 | 9.44° C | 41% | 1032.1 hPa | 0 mm | - | - | - |
| 1777540744 | 8.89° C | 37% | 1032.2 hPa | 0 mm | - | - | - |
| 1777540699 | 8.89° C | 37% | 1032.2 hPa | 0 mm | - | - | - |
| 1777540444 | 8.89° C | 40% | 1032.1 hPa | 0 mm | - | - | - |
| 1777540144 | 8.89° C | 38% | 1032.1 hPa | 0 mm | - | - | - |
| 1777539844 | 8.89° C | 40% | 1032.1 hPa | 0 mm | - | - | - |
| 1777539799 | 8.89° C | 40% | 1032.1 hPa | 0 mm | - | - | - |
| 1777539546 | 8.33° C | 38% | 1031.9 hPa | 0 mm | - | - | - |
| 1777538898 | 8.89° C | 40% | 1032.3 hPa | 0 mm | - | - | - |
| 1777537995 | 8.33° C | 43% | 1032.1 hPa | 0 mm | - | - | - |
| 1777537096 | 8.33° C | 43% | 1032.5 hPa | 0 mm | - | - | - |
| 1777536195 | 7.78° C | 44% | 1032 hPa | 0 mm | - | - | - |
* Rain latest hour (hover to see other rain measurements)
** Current wind speed in m/s (hover to see current wind gust speed)